Location: Peebles
(55.6412°N, 3.1714°W)
Time: 10:24:55
(UTC+01:00)

Daily predictions for brighter satellites

Satellite Brightness Start Highest point End
(mag) Time Altitude Azimuth Time Altitude Azimuth Time Altitude Azimuth
Landsat 4 4.0 18:36:39 10° NNE 18:40:15 43° E 18:43:48 10° S
Cosmos 1703 3.8 18:37:23 10° N 18:41:08 38° ENE 18:44:49 10° SE
Cosmos 1484 Rocket 3.1 18:37:56 10° S 18:41:39 68° WSW 18:45:23 10° NNW
Cosmos 2285 Rocket 4.4 18:36:20 10° SW 18:42:46 73° WNW 18:49:14 10° NNE
MTI 4.4 18:44:57 10° NNE 18:47:58 36° E 18:50:59 10° SSE
Cosmos 2237 Rocket 3.3 18:43:57 10° NNW 18:48:49 28° NNE 18:53:41 10° E
Cosmos 2112 Rocket 4.1 18:44:46 10° SSW 18:50:00 64° ESE 18:55:13 10° NNE
Cosmos 1400 Rocket 2.8 18:48:58 10° N 18:53:04 63° ENE 18:57:04 10° SSE
Ariane Rocket 4.2 18:48:19 10° S 18:53:14 48° W 18:58:13 10° NNW
Meteor 1-28 Rocket 3.3 18:50:16 10° NNE 18:54:01 53° E 18:57:45 10° S
Cosmos 2056 Rocket 4.1 18:50:05 10° NNW 18:55:26 66° WSW 19:00:39 10° SSE
NOSS 3-3 (A) 4.4 18:49:17 10° WSW 18:55:41 70° NNW 19:02:49 10° NE
NOSS 3-3 (C) 4.4 18:49:23 10° WSW 18:55:47 70° NNW 19:02:55 10° NE
FREGAT/IRIS 3.9 18:53:47 10° ESE 18:56:10 22° ENE 18:58:34 10° NNE
Cosmos 1867 3.8 18:50:52 10° SW 18:56:19 78° NW 19:01:50 10° NE
Cosmos 1953 3.4 18:52:24 10° SSW 18:56:23 51° WNW 19:00:23 10° N
CZ-4 R/B 2.3 18:52:44 10° S 18:56:54 58° WSW 19:01:01 10° NNW
SL-16 R/B 3.7 18:52:42 10° NNW 18:57:02 22° NNE 19:01:22 10° ENE
SPOT 3 Rocket 3.5 18:52:21 10° SSE 18:57:33 75° ENE 19:02:47 10° NNW
Cosmos 1809 Rocket 4.4 18:51:54 10° S 18:57:57 74° E 19:04:02 10° NNE
ERS-2 3.1 18:54:27 10° S 18:58:04 53° WSW 19:01:43 10° NNW
Cosmos 1295 Rocket 4.5 18:52:55 10° S 18:59:02 82° E 19:05:15 10° NNE
YAOGAN 1 2.9 18:57:19 10° S 19:01:39 71° WSW 19:06:00 10° NNW
GP-B 3.1 18:57:49 10° N 19:02:14 58° E 19:06:37 10° SSE
METEOR-M 4.2 18:57:44 10° SSE 19:03:06 88° ENE 19:08:30 10° NNW
USA 161 4.4 19:05:17 10° NNW 19:06:54 15° WNW 19:08:27 10° W
Cosmos 1733 4.3 19:03:50 10° SSW 19:07:36 50° WNW 19:11:25 10° N
Cosmos 1908 4.4 19:06:06 10° SE 19:09:07 21° E 19:12:07 10° NE
COSMOS 2428 2.8 19:04:05 10° NNW 19:09:44 59° NE 19:15:21 10° SE
Cosmos 1242 Rocket 2.9 19:06:47 10° SSW 19:10:25 72° WNW 19:14:08 10° N
Cosmos 1980 4.5 19:06:57 10° NNW 19:12:08 34° NE 19:16:37 13° E
SL-24 R/B - RUBIN 2 4.3 19:07:50 10° NW 19:13:00 65° SW 19:17:35 10° SSE
Cosmos 2333 Rocket 2.7 19:07:38 10° NNW 19:13:06 42° NE 19:18:19 11° ESE
Cosmos 1452 Rocket 3.5 19:08:02 10° NNW 19:13:20 85° ENE 19:18:37 10° SSE
Cosmos 2360 Rocket 2.4 19:08:32 10° NW 19:14:12 78° WSW 19:19:52 10° SSE
Cosmos-2242 3.0 19:10:42 10° S 19:14:58 88° E 19:19:16 10° NNE
Timation 2 Rocket 4.2 19:08:55 10° SW 19:15:31 87° NW 19:22:23 10° NE
NOAA 12 4.1 19:11:32 10° SSE 19:16:50 81° ENE 19:22:12 10° NNW
CZ-2C R/B 3.7 19:12:22 10° NNE 19:17:00 88° WNW 19:21:31 10° SSW
H-2A R/B 3.2 19:13:45 10° SE 19:17:24 40° ENE 19:21:06 10° N
SKYMED 2 3.7 19:13:18 10° NNE 19:17:36 54° E 19:21:51 10° S
ALOS 2.2 19:13:10 10° SSE 19:17:50 75° ENE 19:22:32 10° NNW
Cosmos 2082 Rocket 3.3 19:14:48 10° WSW 19:20:14 43° NW 19:25:43 10° NNE
Cosmos 2151 3.0 19:16:00 10° NNW 19:20:20 87° ENE 19:24:38 10° SSE
Cosmos 2322 Rocket 3.9 19:15:29 10° NW 19:20:35 37° WSW 19:25:40 10° S
Meteor 2-21 Rocket 4.4 19:15:28 10° S 19:21:33 83° E 19:27:38 10° NNE
Cosmos 1743 Rocket 3.8 19:19:08 10° NNW 19:23:30 73° W 19:27:52 10° S
HJ-1C 4.2 19:20:29 10° SE 19:23:34 33° ENE 19:26:41 10° N
USA 234 3.3 19:21:35 14° E 19:27:29 86° NNE 19:34:05 10° WNW
Cosmos 2366 rocket 3.9 19:23:04 10° S 19:29:16 77° E 19:35:27 10° NNE
FengYun 1-2 T 4.2 19:25:18 10° SSE 19:30:43 64° ENE 19:36:10 10° NNW
Meteor 2-1 Rocket 4.4 19:26:16 10° S 19:31:54 53° E 19:37:39 10° NNE
CZ-2D R/B 4.1 19:30:37 17° ESE 19:32:59 31° ENE 19:36:29 10° N
Cosmos 1315 Rocket 2.8 19:30:54 10° NNW 19:34:58 87° ENE 19:39:04 10° SSE
ATLAS 5 CENTAUR R/B 3.0 19:30:49 10° W 19:35:37 40° N 19:40:24 13° NE
Spot 2 Rocket 4.2 19:33:41 16° ESE 19:37:02 33° ENE 19:41:33 10° N
Cosmos 1626 3.3 19:34:39 10° NNW 19:38:17 47° W 19:41:53 10° S
Cosmos 1842 Rocket 3.5 19:34:12 10° S 19:38:38 70° E 19:43:05 10° NNE
Cosmos 2322 4.2 19:35:49 10° NW 19:41:31 64° WSW 19:47:09 10° SSE
SL-8 Rocket 4.3 19:37:44 10° SSW 19:43:56 71° WNW 19:50:13 10° N
Aureole 1 Rocket 3.4 19:39:08 10° SSW 19:45:11 84° ESE 19:49:43 10° NNE
Cosmos 1500 Rocket 4.2 19:41:17 10° NNW 19:45:36 58° W 19:49:52 10° S
Resurs 01 Rocket 2.2 19:43:26 21° ESE 19:45:52 37° ENE 19:49:56 10° N
Cosmos 2221 2.8 19:42:41 10° SSE 19:46:46 42° E 19:50:55 10° NNE
deb Kosmos-1763 4.3 19:44:22 10° SSW 19:48:12 77° WNW 19:52:04 10° NNE
NOSS 0 Rocket 4.0 19:42:05 10° NW 19:48:16 62° NE 19:52:48 19° SE
GRACE-2 3.7 19:45:46 10° S 19:48:21 78° W 19:50:57 10° N
Abrixas rocket 4.0 19:46:00 10° SW 19:48:27 19° SSE 19:49:04 18° SSE
Cosmos 921 Rocket 3.6 19:45:02 10° NNW 19:49:30 61° WSW 19:53:52 10° S
GRACE-1 3.9 19:47:56 10° S 19:50:31 71° W 19:53:07 10° N
Cosmos 2058 3.9 19:46:30 10° NNW 19:50:35 50° W 19:54:38 10° S
RESURS DK-1 3.9 19:48:17 10° NW 19:52:08 37° WSW 19:55:56 10° S
Cosmos 1833 Rocket 4.3 19:47:37 10° W 19:52:36 31° NW 19:57:37 10° NNE
EO 1 Del DPAF 3.8 19:49:19 10° N 19:53:08 60° WNW 19:56:56 10° SSW
Gbstr 26 Del rocket 4.3 19:50:03 10° W 19:54:43 45° SSW 19:58:39 19° SE
Thor Agena Rocket 3.6 19:49:46 10° NNE 19:54:48 50° E 19:59:44 10° S
FENGYUN 3A 4.2 19:49:30 10° S 19:54:52 63° WSW 20:00:16 10° NNW
CSL-04 DEB 4.3 19:51:00 10° SSE 19:55:06 74° ENE 19:59:09 10° NNW
YAOGAN 6 4.3 19:58:18 20° NE 19:58:18 20° NE 20:00:23 10° N
Cosmos 1461 2.8 19:53:31 10° SW 19:57:38 88° SE 20:00:37 20° NE
Aureole 2 Rocket 2.6 19:54:54 10° NNW 19:58:37 68° ENE 20:00:28 29° SE
Cosmos 1000 Rocket 4.4 19:53:23 10° N 19:59:42 87° E 20:05:56 10° S
Resurs 1-3 3.9 20:00:03 28° ESE 20:01:59 47° ENE 20:06:13 10° N
Iridium 4 Rocket 3.7 19:56:58 10° S 20:02:32 72° E 20:08:26 10° N
Geosat 4.4 20:00:44 28° E 20:02:58 46° NE 20:07:47 10° NNW
Lacrosse 5 rocket 1.3 19:59:44 10° WSW 20:04:10 89° NNW 20:05:56 35° ENE
Cosmos 2219 Rocket 2.1 19:58:47 10° NNW 20:04:25 83° NE 20:08:32 19° SE
Cosmos 2084 3.0 20:01:24 10° NW 20:05:13 86° NNE 20:06:30 40° ESE
COSMO-SKYMED 1 3.1 20:01:25 10° N 20:05:43 60° WNW 20:10:00 10° SSW
Cosmos 1821 Rocket 4.0 20:00:41 10° SSE 20:06:40 56° E 20:12:48 10° NNE
SJ-6B 2.7 20:03:34 10° SSE 20:07:19 83° WSW 20:11:05 10° NNW
Lacrosse 4 Rocket 3.7 20:05:47 10° WNW 20:08:54 18° NNW 20:11:59 10° NNE
Envisat 3.1 20:08:39 25° SE 20:11:29 56° ENE 20:16:28 10° N
Cosmos 1934 Rocket 4.1 20:08:34 10° SSE 20:14:40 51° E 20:20:48 10° NNE
ARGOS 4.4 20:14:44 22° ENE 20:15:05 22° NE 20:19:12 10° N
Cosmos 2239 Rocket 4.4 20:09:11 10° S 20:15:13 63° E 20:21:18 10° NNE
Sich 1 2.9 20:15:20 10° N 20:19:42 81° ENE 20:22:19 24° SSE
Cosmos 1805 Rocket 3.9 20:19:29 10° NNW 20:23:51 67° W 20:28:12 10° S
Cosmos 2123 Rocket 3.9 20:20:28 10° N 20:26:44 82° ENE 20:33:00 10° SSE
Meteor 2-3 Rocket 3.9 20:24:04 10° N 20:29:44 51° ENE 20:31:15 41° ESE
Cosmos 158 Rocket 3.9 20:25:12 10° S 20:30:11 59° ESE 20:35:20 10° NNE
USA 267 3.9 20:30:55 31° SE 20:30:57 31° SE 20:36:37 10° SSW
Cosmos 1666 Rocket 3.5 20:28:00 10° NNW 20:32:24 81° W 20:34:44 27° S
CZ-4C R/B 3.8 20:29:00 10° S 20:30:27 17° SSE 20:30:27 17° SSE
Cosmos 2237 Rocket 2.1 20:28:00 10° NNW 20:33:46 80° NE 20:35:54 40° SE
Cosmos 1331 Rocket 3.9 20:28:44 10° NNW 20:34:03 84° ENE 20:36:00 40° SSE
In-Cosmos 22 Rocket 4.1 20:29:00 10° NNW 20:34:42 85° ENE 20:38:29 23° SSE
ERS-1 Rocket 4.0 20:35:37 29° NE 20:35:37 29° NE 20:39:32 10° N
Meteor 2-10 3.9 20:38:55 52° ESE 20:39:28 55° E 20:44:30 10° NNE
Cosmos 1933 Rocket 3.9 20:36:02 10° N 20:39:42 48° NE 20:39:42 48° NE
Cosmos 1605 Rocket 4.0 20:37:27 26° SSE 20:40:45 53° E 20:46:40 10° NNE
Cosmos 1633 Rocket 3.1 20:37:26 10° NNW 20:41:52 79° W 20:43:30 38° S
SL-16 R/B 2.4 20:36:55 10° NNW 20:42:30 51° NE 20:43:24 46° ENE
Cosmos 1269 Rocket 4.0 20:38:33 10° S 20:43:42 57° ESE 20:44:03 55° E
Cosmos 1908 4.2 20:40:56 10° SSW 20:44:44 48° WNW 20:48:33 10° N
BREEZE M DEB (TANK) 4.1 20:42:52 10° WSW 20:45:13 16° SW 20:45:19 16° SW
Cosmos 967 Rocket 4.4 20:42:40 10° NW 20:49:11 88° NE 20:51:16 46° SE
Cosmos 1726 4.2 20:53:53 19° N 20:53:53 19° N 20:55:02 10° N
SPOT 5 4.4 20:53:51 24° NE 20:53:51 24° NE 20:56:58 10° N
Cosmos 2098 Rocket 3.7 20:48:09 10° SSW 20:52:48 73° WNW 20:58:49 10° N
COSMOS 2428 4.1 20:48:40 10° NW 20:53:48 36° WSW 20:58:54 10° S
Cosmos 468 4.4 20:49:13 10° SSW 20:54:27 87° WNW 20:59:44 10° NNE
MOS 1-B Rocket 4.3 20:50:46 13° S 20:55:47 63° WSW 21:02:01 10° NNW
Cosmos 1980 3.8 20:51:04 10° NW 20:56:43 74° WSW 20:58:28 45° SSE
Cosmos 2333 Rocket 2.8 20:51:59 10° NW 20:57:36 56° WSW 21:00:21 29° S
Cosmos 1302 Rocket 3.8 20:53:50 10° NNW 20:59:05 81° ENE 20:59:32 73° ESE
Cosmos 1939 Rocket 3.2 21:00:38 64° NNW 21:00:38 64° NNW 21:04:12 10° NNW
USA 32 3.9 20:56:43 10° N 21:02:00 88° W 21:03:08 57° S
H-2A R/B 3.2 21:06:43 30° NE 21:06:43 30° NE 21:10:26 10° N
Cosmos 2082 Rocket 4.4 21:01:40 10° WNW 21:05:51 20° NNW 21:10:03 10° NNE
Cosmos 1447 Rocket 4.4 21:00:33 10° NNW 21:06:58 89° E 21:09:08 45° S
USA 234 3.5 21:08:57 45° SSE 21:10:47 59° SSW 21:17:17 10° WNW
Cosmos 2219 3.5 21:06:06 10° SSW 21:10:28 52° S 21:10:28 52° S
Spot 2 Rocket 4.2 21:13:53 33° SSW 21:15:51 52° W 21:20:50 10° NNW
Cosmos 1892 4.3 21:14:20 10° NNW 21:16:29 31° NNW 21:16:29 31° NNW
ATLAS 5 CENTAUR R/B 2.9 21:16:18 10° WNW 21:21:24 42° NNE 21:21:55 41° NNE
Resurs 01 Rocket 3.0 21:21:01 29° SW 21:22:22 36° W 21:26:29 10° NNW
Cosmos 2221 4.4 21:20:42 10° SW 21:24:31 29° WNW 21:28:22 10° N
SL-19 R/B 4.5 21:25:41 69° SSE 21:26:35 89° ENE 21:32:43 10° NNW
Cosmos 1470 Rocket 4.4 21:25:54 10° NNW 21:29:50 49° WNW 21:29:50 49° WNW
Terra 4.0 21:41:24 17° NNE 21:41:24 17° NNE 21:42:52 10° N
Lacrosse 5 rocket 3.1 21:39:16 10° W 21:41:37 31° WNW 21:41:37 31° WNW
Cosmos 2219 Rocket 4.1 21:43:27 10° NW 21:47:47 23° WSW 21:50:17 17° SW
Lacrosse 4 Rocket 3.9 21:46:14 10° NNW 21:48:25 17° N 21:48:25 17° N
ARGOS 3.9 21:56:16 49° NNW 21:56:16 49° NNW 22:00:12 10° NNW
ERS-1 Rocket 4.3 22:15:38 36° NW 22:15:38 36° NW 22:18:45 10° NNW
USA 267 4.5 22:18:18 29° SW 22:18:18 29° SW 22:21:17 10° WSW
Cosmos 2237 Rocket 3.9 22:12:43 10° NW 22:17:17 25° WSW 22:17:45 25° WSW
Cosmos 1943 4.4 22:18:18 10° NNW 22:21:49 36° NNW 22:21:49 36° NNW
SL-16 R/B 3.4 22:21:15 10° NW 22:25:17 37° WNW 22:25:17 37° WNW
H-2A R/B 3.8 22:47:21 30° NW 22:47:21 30° NW 22:50:11 10° NNW
Cosmos 2082 Rocket 4.4 22:48:15 10° NNW 22:52:10 18° N 22:52:21 18° NNE
ATLAS 5 CENTAUR R/B 4.0 23:01:07 10° NW 23:03:28 27° NW 23:03:28 27° NW
